Overview Statistics Trail Chart Weather Telemetry Raw packets
 

This is the latest recevied weather packets stored in our database for station/object WB5RFA. If no packets are shown the sender has not sent any weather packets the latest 10 day(s).

<< 59 60 61 62 63 64 65 >>
Time Temp. Humidity Pressure Rain* Wind** Luminosity Snow
1787850819 27.78° C 55% 1017 hPa 0 mm - - -
1787850339 28.33° C 58% 1017.2 hPa 0 mm - - -
1787849860 27.78° C 58% 1017.2 hPa 0 mm - - -
1787849380 27.78° C 59% 1017.1 hPa 0 mm - - -
1787848900 27.78° C 61% 1017 hPa 0 mm - - -
1787848419 27.78° C 62% 1017.1 hPa 0 mm - - -
1787847939 27.22° C 64% 1017.1 hPa 0 mm - - -
1787847459 27.22° C 64% 1017.1 hPa 0 mm - - -
1787846978 27.22° C 66% 1017.1 hPa 0 mm - - -
1787846500 26.67° C 66% 1017.1 hPa 0 mm - - -
1787846019 26.11° C 69% 1016.9 hPa 0 mm - - -
1787845540 25.56° C 70% 1016.8 hPa 0 mm - - -
1787845060 25.56° C 70% 1016.9 hPa 0 mm - - -
1787844579 25° C 70% 1016.8 hPa 0 mm - - -
1787844099 25° C 72% 1016.9 hPa 0 mm - - -
1787843619 25° C 74% 1016.9 hPa 0 mm - - -
1787843138 25° C 74% 1017 hPa 0 mm - - -
1787842660 24.44° C 74% 1017 hPa 0 mm - - -
1787842180 24.44° C 75% 1017 hPa 0 mm - - -
1787841700 23.89° C 76% 1017 hPa 0 mm - - -
1787841220 23.33° C 78% 1016.9 hPa 0 mm - - -
1787840739 23.33° C 78% 1016.7 hPa 0 mm - - -
1787840259 22.78° C 79% 1016.7 hPa 0 mm - - -
1787839779 22.22° C 81% 1016.6 hPa 0 mm - - -
1787839298 21.67° C 81% 1016.6 hPa 0 mm - - -

* Rain latest hour (hover to see other rain measurements)
** Current wind speed in m/s (hover to see current wind gust speed)